time, Switch, Flow(0), Analog(2)
yyyy/mm/dd HH:MM:SS.fff, True=FILTERED|False=TOTAL, L/min, V
2023/06/12 10:00:01.795, True, 4.713, 0.142824
2023/06/12 10:00:02.299, True, 4.642, 0.140993
2023/06/12 10:00:02.803, True, 4.310, 0.140993
2023/06/12 10:00:03.307, True, 4.643, 0.143969
2023/06/12 10:00:03.802, True, 4.045, 0.147097
2023/06/12 10:00:04.307, True, 2.653, 0.142672
2023/06/12 10:00:04.811, True, 1.326, 0.142824
2023/06/12 10:00:05.307, True, 1.011, 0.139467
2023/06/12 10:00:05.811, True, 0.663, 0.141909
2023/06/12 10:00:06.315, True, 0.663, 0.140383
2023/06/12 10:00:06.810, True, 0.674, 0.142901
2023/06/12 10:00:07.315, True, 0.663, 0.142443
2023/06/12 10:00:07.819, True, 0.663, 0.141451
2023/06/12 10:00:08.315, True, 0.674, 0.138705
2023/06/12 10:00:08.819, True, 0.663, 0.144808
2023/06/12 10:00:09.323, True, 0.663, 0.142367
2023/06/12 10:00:09.819, True, 0.674, 0.139849
2023/06/12 10:00:10.323, True, 0.663, 0.141299
2023/06/12 10:00:10.827, True, 0.663, 0.143969
2023/06/12 10:00:11.331, True, 0.663, 0.141909
2023/06/12 10:00:11.827, True, 0.674, 0.140841
2023/06/12 10:00:12.331, True, 0.663, 0.140612
2023/06/12 10:00:12.827, True, 0.674, 0.141909
2023/06/12 10:00:13.331, True, 0.331, 0.142519
2023/06/12 10:00:13.835, True, 0.663, 0.144121
2023/06/12 10:00:14.331, True, 0.674, 0.198672
2023/06/12 10:00:14.834, True, 0.663, 0.142519
2023/06/12 10:00:15.339, True, 0.663, 0.142367
2023/06/12 10:00:15.835, True, 0.674, 0.140612
2023/06/12 10:00:16.339, True, 0.663, 0.142367
2023/06/12 10:00:16.843, True, 0.663, 0.142672
2023/06/12 10:00:17.339, True, 0.674, 0.140841
2023/06/12 10:00:17.842, True, 0.664, 0.140688
2023/06/12 10:00:18.347, True, 0.331, 0.140993
2023/06/12 10:00:18.843, True, 0.675, 0.141451
2023/06/12 10:00:19.347, True, 0.662, 0.140764
2023/06/12 10:00:19.851, True, 0.663, 0.142138
2023/06/12 10:00:20.347, True, 0.674, 0.140002
2023/06/12 10:00:20.851, True, 0.663, 0.141222
2023/06/12 10:00:21.355, True, 0.663, 0.140841
2023/06/12 10:00:21.851, True, 0.674, 0.140459
2023/06/12 10:00:22.355, True, 0.332, 0.142138
2023/06/12 10:00:22.859, True, 0.663, 0.142290
2023/06/12 10:00:23.355, True, 0.674, 0.141909
2023/06/12 10:00:23.859, True, 0.663, 0.140688
2023/06/12 10:00:24.355, True, 0.674, 0.143816
2023/06/12 10:00:24.859, True, 0.332, 0.142367
2023/06/12 10:00:25.363, True, 0.663, 0.141299
2023/06/12 10:00:25.858, True, 0.674, 0.141146
2023/06/12 10:00:26.363, True, 0.663, 0.142290
2023/06/12 10:00:26.867, True, 0.663, 0.140764
2023/06/12 10:00:27.362, True, 0.675, 0.143435
2023/06/12 10:00:27.867, True, 0.662, 0.143435
2023/06/12 10:00:28.370, True, 0.332, 0.140154
2023/06/12 10:00:28.867, True, 0.674, 0.138933
2023/06/12 10:00:29.371, True, 0.664, 0.143130
2023/06/12 10:00:29.875, True, 0.662, 0.142367
2023/06/12 10:00:30.379, True, 0.663, 0.141222
2023/06/12 10:00:30.875, True, 0.674, 0.141451
2023/06/12 10:00:31.378, True, 0.664, 0.142138
2023/06/12 10:00:31.883, True, 0.662, 0.142290
2023/06/12 10:00:32.379, True, 0.337, 0.140688
2023/06/12 10:00:32.883, True, 0.663, 0.141222
2023/06/12 10:00:33.387, True, 0.663, 0.139620
2023/06/12 10:00:33.883, True, 0.674, 0.143511
2023/06/12 10:00:34.387, True, 0.663, 0.142748
2023/06/12 10:00:34.891, True, 0.663, 0.142596
2023/06/12 10:00:35.395, True, 0.664, 0.141756
2023/06/12 10:00:35.891, True, 0.673, 0.141299
2023/06/12 10:00:36.395, True, 0.663, 0.140688
2023/06/12 10:00:36.899, True, 0.332, 0.141527
2023/06/12 10:00:37.395, True, 0.674, 0.141909
2023/06/12 10:00:37.899, True, 0.663, 0.140154
2023/06/12 10:00:38.403, True, 0.663, 0.141146
2023/06/12 10:00:38.899, True, 0.675, 0.146105
2023/06/12 10:00:39.403, True, 0.662, 0.142290
2023/06/12 10:00:39.907, True, 0.663, 0.142672
2023/06/12 10:00:40.411, True, 0.663, 0.142061
2023/06/12 10:00:40.907, True, 0.674, 0.141375
2023/06/12 10:00:41.411, True, 0.332, 0.142061
2023/06/12 10:00:41.915, True, 0.663, 0.142824
2023/06/12 10:00:42.411, True, 0.674, 0.141070
2023/06/12 10:00:42.915, True, 0.663, 0.143130
2023/06/12 10:00:43.419, True, 0.663, 0.140002
2023/06/12 10:00:43.915, True, 0.674, 0.141985
2023/06/12 10:00:44.419, True, 0.663, 0.142519
2023/06/12 10:00:44.922, True, 0.663, 0.140993
2023/06/12 10:00:45.419, True, 0.674, 0.141985
2023/06/12 10:00:45.923, True, 0.332, 0.143053
2023/06/12 10:00:46.427, True, 0.663, 0.141527
2023/06/12 10:00:46.923, True, 0.674, 0.140383
2023/06/12 10:00:47.427, True, 0.663, 0.139544
2023/06/12 10:00:47.931, True, 0.664, 0.141299
2023/06/12 10:00:48.427, True, 0.336, 0.142901
2023/06/12 10:00:48.931, True, 0.664, 0.141833
2023/06/12 10:00:49.435, True, 0.662, 0.142748
2023/06/12 10:00:49.930, True, 0.674, 0.141680
2023/06/12 10:00:50.435, True, 0.663, 0.142290
2023/06/12 10:00:50.938, True, 0.663, 0.142519
2023/06/12 10:00:51.435, True, 0.674, 0.140612
2023/06/12 10:00:51.939, True, 0.663, 0.142138
2023/06/12 10:00:52.443, True, 0.663, 0.140536
2023/06/12 10:00:52.938, True, 0.673, 0.141375
2023/06/12 10:00:53.442, True, 0.664, 0.143359
2023/06/12 10:00:53.946, True, 0.331, 0.141299
2023/06/12 10:00:54.442, True, 0.674, 0.141222
2023/06/12 10:00:54.947, True, 0.664, 0.143740
2023/06/12 10:00:55.450, True, 0.663, 0.142061
2023/06/12 10:00:55.946, True, 0.674, 0.142672
2023/06/12 10:00:56.451, True, 0.665, 0.142977
2023/06/12 10:00:56.955, True, 0.331, 0.142138
2023/06/12 10:00:57.450, True, 0.674, 0.141527
2023/06/12 10:00:57.955, True, 0.664, 0.141375
2023/06/12 10:00:58.451, True, 0.674, 0.139696
2023/06/12 10:00:58.954, True, 0.663, 0.143359
2023/06/12 10:00:59.459, True, 0.663, 0.139925
2023/06/12 10:00:59.955, True, 0.337, 0.141985
2023/06/12 10:01:00.458, True, 0.662, 0.143130
2023/06/12 10:01:00.962, True, 0.664, 0.140536
2023/06/12 10:01:01.467, True, 0.663, 0.142672
2023/06/12 10:01:01.963, True, 0.673, 0.143740
2023/06/12 10:01:02.467, True, 0.664, 0.141146
2023/06/12 10:01:02.970, True, 0.663, 0.139239
2023/06/12 10:01:03.466, True, 0.336, 0.140841
2023/06/12 10:01:03.970, True, 0.664, 0.141833
2023/06/12 10:01:04.475, True, 0.662, 0.142214
2023/06/12 10:01:04.970, True, 0.674, 0.139086
2023/06/12 10:01:05.474, True, 0.663, 0.142824
2023/06/12 10:01:05.979, True, 0.665, 0.142367
2023/06/12 10:01:06.482, True, 0.662, 0.145190
2023/06/12 10:01:06.978, True, 0.337, 0.141680
2023/06/12 10:01:07.483, True, 0.663, 0.141833
2023/06/12 10:01:07.979, True, 0.674, 0.140230
2023/06/12 10:01:08.482, True, 0.663, 0.139391
2023/06/12 10:01:08.987, True, 0.664, 0.142748
2023/06/12 10:01:09.491, True, 0.662, 0.142672
2023/06/12 10:01:09.987, True, 0.337, 0.141909
2023/06/12 10:01:10.491, True, 0.663, 0.141756
2023/06/12 10:01:10.995, True, 0.664, 0.142519
2023/06/12 10:01:11.490, True, 0.675, 0.143587
2023/06/12 10:01:11.995, True, 0.662, 0.141909
2023/06/12 10:01:12.498, True, 0.332, 0.140230
2023/06/12 10:01:12.995, True, 0.674, 0.142596
2023/06/12 10:01:13.499, True, 0.663, 0.141146
2023/06/12 10:01:14.003, True, 0.664, 0.141299
2023/06/12 10:01:14.499, True, 0.674, 0.139010
2023/06/12 10:01:15.003, True, 0.331, 0.142138
2023/06/12 10:01:15.498, True, 0.674, 0.141985
2023/06/12 10:01:16.002, True, 0.663, 0.141985
2023/06/12 10:01:16.507, True, 0.663, 0.143511
2023/06/12 10:01:17.002, True, 0.674, 0.143969
2023/06/12 10:01:17.507, True, 0.663, 0.142596
2023/06/12 10:01:18.011, True, 0.332, 0.141375
2023/06/12 10:01:18.507, True, 0.674, 0.141375
2023/06/12 10:01:19.010, True, 0.663, 0.139849
2023/06/12 10:01:19.514, True, 0.662, 0.140536
2023/06/12 10:01:20.011, True, 0.337, 0.141451
2023/06/12 10:01:20.515, True, 0.664, 0.141299
2023/06/12 10:01:21.019, True, 0.663, 0.141680
2023/06/12 10:01:21.515, True, 0.673, 0.143435
2023/06/12 10:01:22.019, True, 0.663, 0.142824
2023/06/12 10:01:22.523, True, 0.663, 0.142061
2023/06/12 10:01:23.027, True, 0.663, 0.140307
2023/06/12 10:01:23.523, True, 0.338, 0.141756
2023/06/12 10:01:24.026, True, 0.663, 0.140993
2023/06/12 10:01:24.531, True, 0.662, 0.142824
2023/06/12 10:01:25.035, True, 0.663, 0.141833
2023/06/12 10:01:25.531, True, 0.337, 0.140383
2023/06/12 10:01:26.035, True, 0.663, 0.141146
2023/06/12 10:01:26.539, True, 0.663, 0.140230
2023/06/12 10:01:27.035, True, 0.675, 0.142901
2023/06/12 10:01:27.539, True, 0.662, 0.140688
2023/06/12 10:01:28.043, True, 0.332, 0.141299
2023/06/12 10:01:28.538, True, 0.674, 0.143130
2023/06/12 10:01:29.042, True, 0.664, 0.140383
2023/06/12 10:01:29.547, True, 0.662, 0.142138
2023/06/12 10:01:30.043, True, 0.675, 0.142290
2023/06/12 10:01:30.547, True, 0.331, 0.142138
2023/06/12 10:01:31.051, True, 0.663, 0.141833
2023/06/12 10:01:31.547, True, 0.674, 0.141222
2023/06/12 10:01:32.051, True, 0.663, 0.142214
2023/06/12 10:01:32.555, True, 0.663, 0.143969
2023/06/12 10:01:33.050, True, 0.337, 0.142290
2023/06/12 10:01:33.554, True, 0.663, 0.143511
2023/06/12 10:01:34.059, True, 0.663, 0.141299
2023/06/12 10:01:34.555, True, 0.674, 0.141985
2023/06/12 10:01:35.059, True, 0.663, 0.143435
2023/06/12 10:01:35.563, True, 0.663, 0.145647
2023/06/12 10:01:36.059, True, 0.337, 0.143130
2023/06/12 10:01:36.562, True, 0.663, 0.144884
2023/06/12 10:01:37.067, True, 0.663, 0.143130
2023/06/12 10:01:37.563, True, 0.674, 0.144656
2023/06/12 10:01:38.067, True, 0.663, 0.145037
2023/06/12 10:01:38.571, True, 0.663, 0.145571
2023/06/12 10:01:39.067, True, 0.337, 0.141985
2023/06/12 10:01:39.571, True, 0.663, 0.142748
2023/06/12 10:01:40.075, True, 0.663, 0.144350
2023/06/12 10:01:40.571, True, 0.674, 0.143664
2023/06/12 10:01:41.075, True, 0.332, 0.143435
2023/06/12 10:01:41.579, True, 0.663, 0.144350
2023/06/12 10:01:42.075, True, 0.674, 0.143664
2023/06/12 10:01:42.579, True, 0.664, 0.141299
2023/06/12 10:01:43.083, True, 0.663, 0.144427
2023/06/12 10:01:43.579, True, 0.336, 0.144884
2023/06/12 10:01:44.083, True, 0.663, 0.145876
2023/06/12 10:01:44.587, True, 0.663, 0.146258
2023/06/12 10:01:45.083, True, 0.674, 0.145953
2023/06/12 10:01:45.587, True, 0.663, 0.147021
2023/06/12 10:01:46.091, True, 0.663, 0.147478
2023/06/12 10:01:46.587, True, 0.337, 0.148013
2023/06/12 10:01:47.091, True, 0.663, 0.148241
2023/06/12 10:01:47.595, True, 0.663, 0.148547
2023/06/12 10:01:48.099, True, 0.663, 0.148394
2023/06/12 10:01:48.595, True, 0.337, 0.148089
2023/06/12 10:01:49.099, True, 0.663, 0.147631
2023/06/12 10:01:49.603, True, 0.663, 0.149233
2023/06/12 10:01:50.098, True, 0.674, 0.148775
2023/06/12 10:01:50.603, True, 0.332, 0.149996
2023/06/12 10:01:51.107, True, 0.663, 0.151675
2023/06/12 10:01:51.603, True, 0.674, 0.149233
2023/06/12 10:01:52.107, True, 0.663, 0.149767
2023/06/12 10:01:52.603, True, 0.674, 0.148699
2023/06/12 10:01:53.107, True, 0.664, 0.150149
2023/06/12 10:01:53.610, True, 0.331, 0.153201
2023/06/12 10:01:54.115, True, 0.663, 0.150607
2023/06/12 10:01:54.611, True, 0.674, 0.152514
2023/06/12 10:01:55.115, True, 0.332, 0.152514
2023/06/12 10:01:55.619, True, 0.663, 0.151980
2023/06/12 10:01:56.115, True, 0.674, 0.151369
2023/06/12 10:01:56.619, True, 0.663, 0.151675
2023/06/12 10:01:57.123, True, 0.663, 0.152819
2023/06/12 10:01:57.619, True, 0.337, 0.153277
2023/06/12 10:01:58.123, True, 0.663, 0.154345
2023/06/12 10:01:58.627, True, 0.663, 0.153429
2023/06/12 10:01:59.123, True, 0.674, 0.152743
2023/06/12 10:01:59.627, True, 0.332, 0.152819
2023/06/12 10:02:00.123, True, 0.674, 0.153964
2023/06/12 10:02:00.627, True, 0.664, 0.154498
2023/06/12 10:02:01.131, True, 0.662, 0.154116
2023/06/12 10:02:01.627, True, 0.337, 0.152132
2023/06/12 10:02:02.130, True, 0.663, 0.152895
2023/06/12 10:02:02.635, True, 0.664, 0.153506
2023/06/12 10:02:03.131, True, 0.673, 0.154955
2023/06/12 10:02:03.634, True, 0.332, 0.152819
2023/06/12 10:02:04.138, True, 0.663, 0.152514
2023/06/12 10:02:04.635, True, 0.674, 0.152743
2023/06/12 10:02:05.139, True, 0.663, 0.151904
2023/06/12 10:02:05.643, True, 0.663, 0.153506
2023/06/12 10:02:06.138, True, 0.337, 0.154116
2023/06/12 10:02:06.643, True, 0.663, 0.153201
2023/06/12 10:02:07.146, True, 0.663, 0.154269
2023/06/12 10:02:07.651, True, 0.663, 0.155337
2023/06/12 10:02:08.147, True, 0.337, 0.153735
2023/06/12 10:02:08.650, True, 0.664, 0.151827
2023/06/12 10:02:09.154, True, 0.662, 0.152743
2023/06/12 10:02:09.650, True, 0.674, 0.156252
2023/06/12 10:02:10.155, True, 0.663, 0.153277
2023/06/12 10:02:10.659, True, 0.663, 0.152895
2023/06/12 10:02:11.155, True, 0.337, 0.152819
2023/06/12 10:02:11.659, True, 0.663, 0.153582
2023/06/12 10:02:12.163, True, 0.663, 0.153506
2023/06/12 10:02:12.659, True, 0.674, 0.152285
2023/06/12 10:02:13.163, True, 0.332, 0.154421
2023/06/12 10:02:13.666, True, 0.663, 0.155184
2023/06/12 10:02:14.171, True, 0.663, 0.154955
2023/06/12 10:02:14.667, True, 0.674, 0.152132
2023/06/12 10:02:15.171, True, 0.332, 0.154116
2023/06/12 10:02:15.675, True, 0.663, 0.152819
2023/06/12 10:02:16.171, True, 0.674, 0.154498
2023/06/12 10:02:16.675, True, 0.663, 0.155718
2023/06/12 10:02:17.179, True, 0.664, 0.152972
2023/06/12 10:02:17.675, True, 0.336, 0.154345
2023/06/12 10:02:18.179, True, 0.663, 0.152132
2023/06/12 10:02:18.683, True, 0.663, 0.153277
2023/06/12 10:02:19.179, True, 0.674, 0.153353
2023/06/12 10:02:19.682, True, 0.663, 0.153353
2023/06/12 10:02:20.179, True, 0.337, 0.154955
2023/06/12 10:02:20.683, True, 0.664, 0.154955
2023/06/12 10:02:21.187, True, 0.662, 0.154421
2023/06/12 10:02:21.683, True, 0.674, 0.154498
2023/06/12 10:02:22.187, True, 0.331, 0.156329
2023/06/12 10:02:22.690, True, 0.663, 0.155337
2023/06/12 10:02:23.187, True, 0.674, 0.151675
2023/06/12 10:02:23.690, True, 0.332, 0.153124
2023/06/12 10:02:24.195, True, 0.663, 0.155566
2023/06/12 10:02:24.690, True, 0.674, 0.153506
2023/06/12 10:02:25.194, True, 0.663, 0.154879
2023/06/12 10:02:25.699, True, 0.332, 0.154650
2023/06/12 10:02:26.195, True, 0.674, 0.153506
2023/06/12 10:02:26.698, True, 0.663, 0.155184
2023/06/12 10:02:27.203, True, 0.332, 0.154192
2023/06/12 10:02:27.699, True, 0.673, 0.155337
2023/06/12 10:02:28.202, True, 0.663, 0.155489
2023/06/12 10:02:28.707, True, 0.663, 0.154498
2023/06/12 10:02:29.203, True, 0.674, 0.154955
2023/06/12 10:02:29.707, True, 0.332, 0.154574
2023/06/12 10:02:30.211, True, 0.662, 0.155795
2023/06/12 10:02:30.715, True, 0.664, 0.157092
2023/06/12 10:02:31.211, True, 0.336, 0.155413
2023/06/12 10:02:31.714, True, 0.663, 0.154726
2023/06/12 10:02:32.218, True, 0.663, 0.156023
2023/06/12 10:02:32.715, True, 0.674, 0.154803
2023/06/12 10:02:33.219, True, 0.663, 0.153658
2023/06/12 10:02:33.722, True, 0.332, 0.154726
2023/06/12 10:02:34.226, True, 0.664, 0.154650
2023/06/12 10:02:34.723, True, 0.673, 0.153506
2023/06/12 10:02:35.226, True, 0.663, 0.155795
2023/06/12 10:02:35.730, True, 0.663, 0.153964
2023/06/12 10:02:36.235, True, 0.332, 0.154040
2023/06/12 10:02:36.730, True, 0.674, 0.154498
2023/06/12 10:02:37.234, True, 0.663, 0.152590
2023/06/12 10:02:37.739, True, 0.663, 0.152743
2023/06/12 10:02:38.235, True, 0.337, 0.153964
2023/06/12 10:02:38.738, True, 0.664, 0.153964
2023/06/12 10:02:39.242, True, 0.663, 0.153735
2023/06/12 10:02:39.738, True, 0.337, 0.152667
2023/06/12 10:02:40.242, True, 0.663, 0.153582
2023/06/12 10:02:40.746, True, 0.663, 0.154498
2023/06/12 10:02:41.242, True, 0.674, 0.154574
2023/06/12 10:02:41.747, True, 0.664, 0.155337
2023/06/12 10:02:42.251, True, 0.664, 0.154498
2023/06/12 10:02:42.746, True, 0.336, 0.152590
2023/06/12 10:02:43.250, True, 0.663, 0.152895
2023/06/12 10:02:43.754, True, 0.663, 0.151522
2023/06/12 10:02:44.251, True, 0.674, 0.155184
2023/06/12 10:02:44.755, True, 0.663, 0.155032
2023/06/12 10:02:45.259, True, 0.664, 0.152132
2023/06/12 10:02:45.763, True, 0.332, 0.153429
2023/06/12 10:02:46.259, True, 0.673, 0.153201
2023/06/12 10:02:46.762, True, 0.663, 0.154421
2023/06/12 10:02:47.257, True, 0.338, 0.154040
2023/06/12 10:02:47.762, True, 0.662, 0.153964
2023/06/12 10:02:48.266, True, 0.663, 0.155108
2023/06/12 10:02:48.763, True, 0.674, 0.155489
2023/06/12 10:02:49.266, True, 0.332, 0.153277
2023/06/12 10:02:49.770, True, 0.663, 0.151675
2023/06/12 10:02:50.266, True, 0.674, 0.153582
2023/06/12 10:02:50.771, True, 0.663, 0.154116
2023/06/12 10:02:51.275, True, 0.663, 0.153429
2023/06/12 10:02:51.770, True, 0.337, 0.156100
2023/06/12 10:02:52.274, True, 0.663, 0.154269
2023/06/12 10:02:52.778, True, 0.663, 0.154650
2023/06/12 10:02:53.274, True, 0.674, 0.152743
2023/06/12 10:02:53.778, True, 0.332, 0.156023
2023/06/12 10:02:54.282, True, 0.663, 0.156329
2023/06/12 10:02:54.778, True, 0.674, 0.152819
2023/06/12 10:02:55.282, True, 0.663, 0.155489
2023/06/12 10:02:55.786, True, 0.332, 0.155566
2023/06/12 10:02:56.283, True, 0.674, 0.153964
2023/06/12 10:02:56.787, True, 0.663, 0.154574
2023/06/12 10:02:57.282, True, 0.674, 0.154726
2023/06/12 10:02:57.786, True, 0.663, 0.155718
2023/06/12 10:02:58.290, True, 0.332, 0.153277
2023/06/12 10:02:58.786, True, 0.674, 0.155032
2023/06/12 10:02:59.290, True, 0.663, 0.154650
2023/06/12 10:02:59.794, True, 0.663, 0.154879
2023/06/12 10:03:00.290, True, 0.337, 0.153964
2023/06/12 10:03:00.794, True, 0.663, 0.154345
2023/06/12 10:03:01.298, True, 0.663, 0.152590
2023/06/12 10:03:01.794, True, 0.674, 0.156939
2023/06/12 10:03:02.298, True, 0.332, 0.157092
2023/06/12 10:03:02.794, True, 0.674, 0.155261
2023/06/12 10:03:03.298, True, 0.663, 0.154269
2023/06/12 10:03:03.802, True, 0.663, 0.156023
2023/06/12 10:03:04.306, True, 0.663, 0.157168
2023/06/12 10:03:04.802, True, 0.337, 0.154650
2023/06/12 10:03:05.306, True, 0.663, 0.155184
2023/06/12 10:03:05.802, True, 0.674, 0.152743
2023/06/12 10:03:06.306, True, 0.663, 0.155108
2023/06/12 10:03:06.810, True, 0.332, 0.155566
2023/06/12 10:03:07.307, True, 0.674, 0.154574
2023/06/12 10:03:07.810, True, 0.663, 0.154726
2023/06/12 10:03:08.314, True, 0.663, 0.153658
2023/06/12 10:03:08.810, True, 0.337, 0.155337
2023/06/12 10:03:09.314, True, 0.663, 0.157321
2023/06/12 10:03:09.818, True, 0.663, 0.154803
2023/06/12 10:03:10.314, True, 0.674, 0.153658
2023/06/12 10:03:10.818, True, 0.663, 0.153124
2023/06/12 10:03:11.322, True, 0.332, 0.154574
2023/06/12 10:03:11.818, True, 0.674, 0.150988
2023/06/12 10:03:12.322, True, 0.663, 0.155947
2023/06/12 10:03:12.826, True, 0.664, 0.154421
2023/06/12 10:03:13.323, True, 0.337, 0.155642
2023/06/12 10:03:13.826, True, 0.663, 0.154421
2023/06/12 10:03:14.331, True, 0.663, 0.154650
2023/06/12 10:03:14.826, True, 0.337, 0.154803
2023/06/12 10:03:15.330, True, 0.663, 0.153735
2023/06/12 10:03:15.834, True, 0.663, 0.156710
2023/06/12 10:03:16.331, True, 0.674, 0.153506
2023/06/12 10:03:16.834, True, 0.664, 0.153048
2023/06/12 10:03:17.338, True, 0.331, 0.155795
2023/06/12 10:03:17.834, True, 0.674, 0.154726
2023/06/12 10:03:18.338, True, 0.664, 0.154955
2023/06/12 10:03:18.842, True, 0.331, 0.155566
2023/06/12 10:03:19.338, True, 0.674, 0.154879
2023/06/12 10:03:19.842, True, 0.663, 0.154574
2023/06/12 10:03:20.346, True, 0.664, 0.153658
2023/06/12 10:03:20.842, True, 0.336, 0.154498
2023/06/12 10:03:21.346, True, 0.663, 0.154421
2023/06/12 10:03:21.850, True, 0.663, 0.154116
2023/06/12 10:03:22.347, True, 0.674, 0.155795
2023/06/12 10:03:22.850, True, 0.332, 0.153582
2023/06/12 10:03:23.354, True, 0.663, 0.155413
2023/06/12 10:03:23.850, True, 0.674, 0.152209
2023/06/12 10:03:24.354, True, 0.332, 0.155871
2023/06/12 10:03:24.858, True, 0.663, 0.154803
2023/06/12 10:03:25.355, True, 0.674, 0.155947
2023/06/12 10:03:25.858, True, 0.663, 0.154574
2023/06/12 10:03:26.362, True, 0.332, 0.156405
2023/06/12 10:03:26.858, True, 0.674, 0.154726
2023/06/12 10:03:27.362, True, 0.663, 0.153201
2023/06/12 10:03:27.866, True, 0.665, 0.153964
2023/06/12 10:03:28.362, True, 0.337, 0.155337
2023/06/12 10:03:28.866, True, 0.662, 0.156023
2023/06/12 10:03:29.370, True, 0.663, 0.153506
2023/06/12 10:03:29.866, True, 0.337, 0.152514
2023/06/12 10:03:30.370, True, 0.663, 0.152056
2023/06/12 10:03:30.874, True, 0.663, 0.155489
2023/06/12 10:03:31.378, True, 0.663, 0.156176
2023/06/12 10:03:31.874, True, 0.337, 0.154040
2023/06/12 10:03:32.378, True, 0.663, 0.155489
2023/06/12 10:03:32.881, True, 0.664, 0.152285
2023/06/12 10:03:33.378, True, 0.673, 0.156252
2023/06/12 10:03:33.882, True, 0.663, 0.156329
2023/06/12 10:03:34.386, True, 0.332, 0.155032
2023/06/12 10:03:34.882, True, 0.674, 0.154574
2023/06/12 10:03:35.386, True, 0.663, 0.157244
2023/06/12 10:03:35.890, True, 0.332, 0.153964
2023/06/12 10:03:36.386, True, 0.674, 0.154574
2023/06/12 10:03:36.890, True, 0.663, 0.152438
2023/06/12 10:03:37.394, True, 0.663, 0.154498
2023/06/12 10:03:37.890, True, 0.337, 0.154421
2023/06/12 10:03:38.394, True, 0.663, 0.154498
2023/06/12 10:03:38.898, True, 0.664, 0.154040
2023/06/12 10:03:39.395, True, 0.337, 0.154192
2023/06/12 10:03:39.898, True, 0.665, 0.152972
2023/06/12 10:03:40.402, True, 0.662, 0.153353
2023/06/12 10:03:40.899, True, 0.337, 0.153964
2023/06/12 10:03:41.402, True, 0.664, 0.152056
2023/06/12 10:03:41.906, True, 0.663, 0.153658
2023/06/12 10:03:42.410, True, 0.663, 0.154040
2023/06/12 10:03:42.906, True, 0.337, 0.155184
2023/06/12 10:03:43.410, True, 0.663, 0.156023
2023/06/12 10:03:43.914, True, 0.663, 0.154116
2023/06/12 10:03:44.410, True, 0.674, 0.155947
2023/06/12 10:03:44.914, True, 0.663, 0.152743
2023/06/12 10:03:45.410, True, 0.337, 0.155795
2023/06/12 10:03:45.914, True, 0.663, 0.154345
2023/06/12 10:03:46.418, True, 0.664, 0.154498
2023/06/12 10:03:46.922, True, 0.663, 0.151751
2023/06/12 10:03:47.418, True, 0.337, 0.154421
2023/06/12 10:03:47.922, True, 0.663, 0.154421
2023/06/12 10:03:48.426, True, 0.663, 0.154955
2023/06/12 10:03:48.922, True, 0.674, 0.154116
2023/06/12 10:03:49.426, True, 0.332, 0.151217
2023/06/12 10:03:49.930, True, 0.664, 0.154040
2023/06/12 10:03:50.426, True, 0.673, 0.153277
2023/06/12 10:03:50.930, True, 0.663, 0.153658
2023/06/12 10:03:51.434, True, 0.332, 0.156405
2023/06/12 10:03:51.930, True, 0.674, 0.153124
2023/06/12 10:03:52.434, True, 0.663, 0.154269
2023/06/12 10:03:52.938, True, 0.663, 0.154116
2023/06/12 10:03:53.434, True, 0.337, 0.153277
2023/06/12 10:03:53.938, True, 0.663, 0.155489
2023/06/12 10:03:54.434, True, 0.674, 0.153887
2023/06/12 10:03:54.938, True, 0.663, 0.153429
2023/06/12 10:03:55.442, True, 0.332, 0.153048
2023/06/12 10:03:55.946, True, 0.663, 0.154803
2023/06/12 10:03:56.442, True, 0.674, 0.154421
2023/06/12 10:03:56.946, True, 0.332, 0.154498
2023/06/12 10:03:57.450, True, 0.663, 0.154803
2023/06/12 10:03:57.946, True, 0.675, 0.154345
2023/06/12 10:03:58.450, True, 0.331, 0.155108
2023/06/12 10:03:58.954, True, 0.663, 0.154955
2023/06/12 10:03:59.450, True, 0.674, 0.153429
2023/06/12 10:03:59.954, True, 0.663, 0.153048
2023/06/12 10:04:00.458, True, 0.332, 0.152590
2023/06/12 10:04:00.954, True, 0.674, 0.152056
2023/06/12 10:04:01.458, True, 0.663, 0.153506
2023/06/12 10:04:01.962, True, 0.663, 0.155032
2023/06/12 10:04:02.458, True, 0.337, 0.155947
2023/06/12 10:04:02.961, True, 0.663, 0.152895
2023/06/12 10:04:03.466, True, 0.663, 0.152438
2023/06/12 10:04:03.962, True, 0.337, 0.155642
2023/06/12 10:04:04.466, True, 0.664, 0.154803
2023/06/12 10:04:04.970, True, 0.663, 0.153048
2023/06/12 10:04:05.474, True, 0.332, 0.153201
2023/06/12 10:04:05.970, True, 0.674, 0.154574
2023/06/12 10:04:06.474, True, 0.663, 0.153658
2023/06/12 10:04:06.978, True, 0.332, 0.155184
2023/06/12 10:04:07.474, True, 0.674, 0.152514
2023/06/12 10:04:07.978, True, 0.663, 0.153582
2023/06/12 10:04:08.482, True, 0.663, 0.151751
2023/06/12 10:04:08.978, True, 0.337, 0.153277
2023/06/12 10:04:09.482, True, 0.663, 0.155871
2023/06/12 10:04:09.978, True, 0.673, 0.153582
2023/06/12 10:04:10.482, True, 0.332, 0.152972
2023/06/12 10:04:10.985, True, 0.664, 0.152209